This demonstration page uses our WeatherBlox Daily Observations layout. Learn more.

Left ArrowRight Arrow

Hourly Observations for November 1, 2015

Temp ( °F °C ) Dew Point ( °F °C ) Humidity (%) Winds ( mph kmh ) Pressure ( in mb ) Visibility ( mi km ) Precip ( " mm )
12:15 pm 12:15 Sunny 63 17 57 14 83 83 SSW 8 13 29.97 1015 10 16 N/A
12:35 pm 12:35 Sunny 63 17 57 14 83 83 S 8 13 29.97 1015 10 16 N/A
12:55 pm 12:55 Sunny 64 18 57 14 78 78 S 9 15 29.97 1015 10 16 N/A
1:15 pm 13:15 Sunny 66 19 59 15 78 78 SW 6 9 29.97 1015 10 16 N/A
1:35 pm 13:35 Sunny 66 19 59 15 78 78 SSW 9 15 29.94 1014 10 16 N/A
1:55 pm 13:55 Sunny 66 19 59 15 78 78 SSW 6 9 29.94 1014 10 16 N/A
2:15 pm 14:15 Sunny 66 19 59 15 78 78 SSW 6 9 29.94 1014 10 16 N/A
2:35 pm 14:35 Sunny 66 19 59 15 78 78 S 6 9 29.94 1014 10 16 N/A
2:55 pm 14:55 Sunny 66 19 59 15 78 78 S 5 7 29.94 1014 10 16 N/A
3:15 pm 15:15 Sunny 66 19 59 15 78 78 S 3 6 29.94 1014 10 16 N/A
3:35 pm 15:35 Sunny 66 19 59 15 78 78 S 3 6 29.94 1014 10 16 N/A
3:55 pm 15:55 Sunny 66 19 59 15 78 78 N N/A 29.94 1014 10 16 N/A
4:15 pm 16:15 Sunny 66 19 59 15 78 78 N N/A 29.97 1015 10 16 N/A
4:35 pm 16:35 Sunny 64 18 59 15 83 83 N N/A 29.97 1015 10 16 N/A
4:55 pm 16:55 Sunny 64 18 59 15 83 83 N N/A 29.97 1015 10 16 N/A
5:15 pm 17:15 Clear 64 18 59 15 83 83 N N/A 29.97 1015 10 16 N/A
5:35 pm 17:35 Clear 63 17 59 15 88 88 SSW 3 6 30.00 1016 10 16 N/A
5:55 pm 17:55 Clear 63 17 59 15 88 88 SSW 5 7 30.00 1016 10 16 N/A
6:15 pm 18:15 Clear 59 15 59 15 100 100 N N/A 30.00 1016 10 16 N/A
6:35 pm 18:35 Clear 59 15 59 15 100 100 N N/A 30.00 1016 10 16 N/A
6:55 pm 18:55 Clear 59 15 59 15 100 100 N N/A 30.00 1016 10 16 N/A
7:15 pm 19:15 Clear 59 15 55 13 88 88 SW 3 6 30.00 1016 10 16 N/A
7:35 pm 19:35 Clear 59 15 59 15 100 100 SSW 12 19 30.03 1017 10 16 N/A
7:55 pm 19:55 Clear 57 14 57 14 100 100 SW 6 9 30.03 1017 10 16 N/A
8:15 pm 20:15 Clear 55 13 55 13 100 100 SW 10 17 30.03 1017 10 16 N/A
8:35 pm 20:35 Clear 57 14 57 14 100 100 W 3 6 30.03 1017 10 16 N/A
8:55 pm 20:55 Clear 57 14 57 14 100 100 WSW 5 7 30.03 1017 10 16 N/A
9:15 pm 21:15 Clear 55 13 55 13 100 100 WNW 6 9 30.06 1018 10 16 N/A
9:35 pm 21:35 Clear 55 13 55 13 100 100 W 5 7 30.06 1018 10 16 N/A
9:55 pm 21:55 Clear 52 11 52 11 100 100 W 6 9 30.06 1018 10 16 N/A
10:15 pm 22:15 Clear 54 12 54 12 100 100 SW 3 6 30.06 1018 10 16 N/A
10:35 pm 22:35 Clear 54 12 54 12 100 100 N N/A 30.06 1018 10 16 N/A
10:55 pm 22:55 Clear 55 13 54 12 94 94 WSW 3 6 30.06 1018 10 16 N/A
11:15 pm 23:15 Clear 54 12 54 12 100 100 SSW 8 13 30.06 1018 10 16 N/A
11:35 pm 23:35 Clear 54 12 54 12 100 100 N N/A 30.06 1018 10 16 N/A
11:55 pm 23:55 Clear 54 12 54 12 100 100 ESE 3 6 30.06 1018 10 16 N/A

Powered by AerisWeather